星链-36466(STARLINK-36466)

导读

STARLINK-36466是美国于2026年1月9日发射的星链卫星,隶属于SpaceX公司的星链星座项目。星链项目旨在构建全球卫星互联网星座,为全球偏远地区、海洋空域等提供高速低延迟的宽带互联网服务,该卫星入轨后将承担相关组网通信任务,进一步扩充星链星座的覆盖能力与服务规模。

基本信息
目录编号:
67358
目录名称:
STARLINK-36466
国际标识:
2026-003AA
轨道中心:
EARTH
卫星名称:
星链-36466
卫星全名:
星链-36466(STARLINK-36466)
卫星状态:
在轨 (已飞行245 天)
发射日期:
2026-01-09 UTC
国别 :
美国 (US)
星等 :
--
该卫星已列入 空间交会检测服务 Space Conjunction Data Service (SCDS) ,当前飞行风险评估等级: 高风险
轨道信息
数据来源 国际轨道数据
星历时间: 2026-09-11T10:28:26+0800
15小时前
查看轨道信息
半长轴: 6861.164km
偏心率: 0.0001781
轨道倾角: 42.998°
近地点辐角 277.669°
升交点赤经 259.672°
平近点角 82.396°
近地点: 481.805km
远地点: 484.249km
周期: 94.266分钟
每日圈数: 15.275874
详细信息
固有亮度:
5
最大亮度:
2.5
卫星平台:
Starlink V1.0
覆盖范围:
全球
运营商:
太空探索技术公司
运营商所在国:
美国
制造商(研发单位):
太空探索技术公司
制造商所在国:
美国
使用方式:
暂无
卫星简介
Starlink 计划是 SpaceX 推出的全球卫星互联网项目,通过发射低轨道卫星,为全球尤其是偏远地区提供高速、低延迟的互联网服务。自 2019 年起,Starlink 已部署数千颗卫星,旨在缩小全球数字鸿沟,推动互联网普及。该项目还为军事、航空等行业提供通信支持,带来广泛经济效益。
2D轨道图
3D轨道图
轨道高度分析图
轨道倾角分析图
轨道综合分析图
查看轨道综合分析图
交会数据列表
事件ID 空间交会对象 最接近时刻(TCA) 交会距离 交会风险概率(CRP) 交会风险指数(CRI) 操作
CDM_260912-192306-284606-735821
2026-09-12T
19:23:42+0000
0.347 km
远距离
3.360484E-4 高风险 0.86
CDM_260911-130806-356506-735821
2026-09-11T
13:08:15+0000
0.293 km
中距离
2.937602E-4 高风险 0.84
CDM_260912-174906-284606-735822
2026-09-12T
17:49:33+0000
1.268 km
极远距离
8.849521E-6 低风险 0.54
CDM_260911-152906-356506-735821
2026-09-11T
15:29:28+0000
1.097 km
极远距离
7.774604E-6 低风险 0.53
CDM_260912-205706-284606-735821
2026-09-12T
20:57:51+0000
1.907 km
极远距离
2.480544E-6 低风险 0.43
CDM_260912-105405-319906-735821
2026-09-12T
10:54:43+0000
2.462 km
极远距离
1.371513E-6 低风险 0.38
CDM_260912-161506-284606-735821
2026-09-12T
16:15:24+0000
2.814 km
极远距离
1.141661E-6 低风险 0.36
与全量物体交会距离演化趋势
与全量物体交会风险概率演化趋势